AirNav  
 
 284 users online  

32WN Bowman Airstrip Ultralight Flightpark
Suring, Wisconsin, USA


FAA INFORMATION EFFECTIVE 09 NOVEMBER 2017

Location

FAA Identifier: 32WN
Lat/Long: 45-05-58.5800N / 088-25-11.0400W
45-05.976333N / 088-25.184000W
45.0996056 / -88.4197333
(estimated)
Elevation: 840 ft. / 256 m (estimated)
From city: 7 miles S of SURING, WI
Time zone: UTC -6 (UTC -5 during Daylight Saving Time)
Zip code: 54174

Ultralight Flight Park Operations

Ultralight Flight Park use: Private use. Permission required prior to landing
Activation date: 07/2009
Control tower: no
ARTCC: MINNEAPOLIS CENTER
FSS: GREEN BAY FLIGHT SERVICE STATION
Attendance: UNATNDD
Wind indicator: yes
Segmented circle: no

Ultralight Flight Park Communications

WX AWOS-3 at EZS (20 nm S): 118.65 (715-526-2967)

Nearby radio navigation aids

VOR radial/distance  VOR name  Freq  Var
MNMr262/33.1MENOMINEE VOR/DME109.6000E
GRBr343/34.0GREEN BAY VORTAC115.5001E

Ultralight Flight Park Services

Runway Information

Runway 9U/27U

Dimensions: 800 x 80 ft. / 244 x 24 m
Surface: turf, in fair condition
RUNWAY 9U  RUNWAY 27U
Traffic pattern: leftleft
Obstructions: none30 ft. pline, 400 ft. from runway

Ultralight Flight Park Ownership and Management from official FAA records

Ownership: Privately-owned
Owner: KEVIN BOWMAN
11632 STATE HWY 32
SURING, WI 54174
Phone 920-842-2353
Manager: KEVIN BOWMAN
11632 STATE HWY 32
SURING, WI 54174
Phone 920-842-2353

Ultralight Flight Park Operational Statistics

Aircraft based on the field: 2
Single engine airplanes: 1
Ultralights: 1
    

Instrument Procedures

There are no published instrument procedures at 32WN.

Some nearby airports with instrument procedures:

KEZS - Shawano Municipal Airport (20 nm S)
KOCQ - Oconto-J Douglas Bake Municipal Airport (26 nm SE)
KAIG - Langlade County Airport (29 nm W)
KCLI - Clintonville Municipal Airport (32 nm SW)
KMNM - Menominee-Marinette Twin County Airport (33 nm E)
 
Loc | Ops | Rwys | IFR | FBO | Links
Com | Nav | Svcs | Stats | Notes


 
Aerial photo
WARNING: Photo may not be current or correct
Aerial photo of 32WN (Bowman Airstrip Ultralight Flightpark)
Photo taken 03-Jul-2005
looking south.

Do you have a better or more recent aerial photo of Bowman Airstrip Ultralight Flightpark that you would like to share? If so, please send us your photo.

 
Sectional chart

 
Airport distance calculator
Flying to Bowman Airstrip Ultralight Flightpark? Find the distance to fly.

From to 32WN

Sunrise and sunset
Times for 25-Nov-2017
 Local
(UTC-6)
 Zulu
(UTC)
Morning civil twilight06:3312:33
Sunrise07:0613:06
Sunset16:1622:16
Evening civil twilight16:4822:48

Current date and time
Zulu (UTC)  25-Nov-2017 09:50:40
Local (UTC-6)  25-Nov-2017 03:50:40
 
METAR
KEZS 
20nm S 
250940Z AUTO 28006KT 10SM SCT037 OVC049 06/00 A2966 RMK AO2 T00580000
KOCQ 
26nm SE 
250935Z AUTO 28008KT 10SM SCT050 03/00 A2963 RMK AO1 T00330003
KAIG 
31nm W 
250935Z AUTO 28012G17KT 10SM BKN023 OVC044 02/M01 A2964 RMK AO2 T00201008
KCLI 
33nm SW 
250942Z AUTO 27010KT 10SM SCT033 SCT039 SCT050 04/M01 A2968 RMK AO2
KMNM 
34nm E 
250856Z AUTO 27004KT 10SM BKN047 OVC055 04/M01 A2962 RMK AO2 SLP050 T00391006 51020 $
KGRB 
39nm S 
250853Z AUTO 28008KT 10SM OVC043 06/01 A2964 RMK AO2 SLP040 T00560011 51019
TAF
KGRB 
39nm S 
250739Z 2508/2606 30010G17KT P6SM SCT035 TEMPO 2508/2512 BKN035 FM251400 30014G24KT P6SM BKN035 FM251800 30012G20KT P6SM SCT040 FM252200 31007KT P6SM SKC
NOTAMs
Click for the latest NOTAMs
NOTAMs are issued by the DoD/FAA and will open in a separate window not controlled by AirNav.

 

 
 

Would you like to see your business listed on this page?

 If your business provides an interesting product or service to pilots, flight crews, aircraft, or users of the Bowman Airstrip Ultralight Flightpark, you should consider listing it here.  To start the listing process, click on the button below
 
Add a business
 

Other Pages about Bowman Airstrip Ultralight Flightpark

Update a link
 
Copyright © AirNav, LLC. All rights reserved. Privacy Policy  Contact